FW7196 Weather Reports


time (UTC)temp
C
wind
direction
speed
KPH
gust
KPH
rain 1hr
cm
rain 24hr
cm
rain mn
cm
humidity
%
barometer
mb
20260509103037 -1 0 0.0 0.0 0.00 0.00 0.00 93 1013.7
20260509101537 -1 0 0.0 0.0 0.00 0.00 0.00 93 1013.7
20260509100035 -1 0 0.0 0.0 0.00 0.00 0.00 92 1013.6
20260509094538 -1 0 0.0 0.0 0.00 0.00 0.00 92 1013.2
20260509093038 -1 0 0.0 0.0 0.00 0.00 0.00 92 1013.0
20260509091536 -1 0 0.0 0.0 0.00 0.00 0.00 91 1012.8
20260509090035 -1 0 0.0 0.0 0.00 0.00 0.00 92 1012.8
20260509084538 -1 0 0.0 0.0 0.00 0.00 0.00 91 1012.7
20260509083046 0 0 0.0 0.0 0.00 0.00 0.00 92 1012.6
20260509081536 -1 0 0.0 0.0 0.00 0.00 0.00 92 1012.3
20260509080037 -1 0 0.0 0.0 0.00 0.00 0.00 91 1012.3
20260509074537 0 0 0.0 0.0 0.00 0.00 0.00 91 1012.4
20260509073036 0 0 0.0 0.0 0.00 0.00 0.00 91 1012.7
20260509071540 -1 0 0.0 0.0 0.00 0.00 0.00 91 1012.7
20260509070733 0 70 0.0 0.0 0.00 0.00 0.00 91 1012.7
20260509070037 -1 0 0.0 0.0 0.00 0.00 0.00 90 1012.8
20260509064536 -1 0 0.0 0.0 0.00 0.00 0.00 90 1012.9
20260509063035 0 0 0.0 0.0 0.00 0.00 0.00 89 1012.9
20260509061541 0 0 0.0 0.0 0.00 0.00 0.00 89 1012.9
20260509060037 0 0 0.0 0.0 0.00 0.00 0.00 88 1012.9
20260509054540 0 0 0.0 0.0 0.00 0.00 0.00 88 1013.0
20260509053058 0 0 0.0 0.0 0.00 0.00 0.00 87 1012.9
20260509051536 0 0 0.0 0.0 0.00 0.00 0.00 87 1012.8
20260509050037 0 0 0.0 0.0 0.00 0.00 0.00 86 1012.7
20260509044534 0 0 0.0 0.0 0.00 0.00 0.00 85 1012.5
20260509043046 1 0 0.0 0.0 0.00 0.00 0.00 84 1012.5
20260509041550 1 0 0.0 0.0 0.00 0.00 0.00 83 1012.7
20260509040035 1 0 0.0 0.0 0.00 0.00 0.00 82 1012.5
20260509034546 2 0 0.0 0.0 0.00 0.00 0.00 81 1012.5
20260509033037 2 0 0.0 0.0 0.00 0.00 0.00 80 1012.5
20260509031539 2 0 0.0 0.0 0.00 0.00 0.00 78 1012.3
20260509030036 3 0 0.0 0.0 0.00 0.00 0.00 77 1012.2
20260509024536 3 0 0.0 0.0 0.00 0.00 0.00 75 1012.0
20260509023037 4 0 0.0 0.0 0.00 0.00 0.00 73 1011.9
20260509021538 5 0 0.0 0.0 0.00 0.00 0.00 72 1011.7
20260509020047 5 0 0.0 0.0 0.00 0.00 0.00 70 1011.5
20260509014535 6 0 0.0 0.0 0.00 0.00 0.00 66 1011.4
20260509013047 7 0 0.0 0.0 0.00 0.00 0.00 61 1011.1
20260509011536 7 0 0.0 0.0 0.00 0.00 0.00 58 1011.0
20260509010049 7 0 0.0 4.8 0.00 0.00 0.00 57 1010.8
20260509004537 8 123 1.6 6.4 0.00 0.00 0.00 57 1010.6
20260509003037 8 0 0.0 3.2 0.00 0.00 0.00 54 1010.5
20260509001536 8 0 0.0 4.8 0.00 0.00 0.00 53 1010.3
20260509000034 9 0 0.0 11.3 0.00 0.00 0.00 52 1010.0
20260508235427 9 19 1.6 9.7 0.00 0.00 0.00 50 1009.9
20260508234919 10 192 0.0 1.6 0.00 0.00 0.00 49 1009.8
20260508234538 9 200 1.6 4.8 0.00 0.00 0.00 47 1009.8
20260508234419 10 109 0.0 3.2 0.00 0.00 0.00 47 1009.7
20260508233037 10 0 0.0 11.3 0.00 0.00 0.00 44 1009.4
20260508231536 10 0 0.0 12.9 0.00 0.00 0.00 41 1009.3
20260508230047 10 0 1.6 4.8 0.00 0.00 0.00 40 1009.2
20260508224541 10 0 0.0 0.0 0.00 0.00 0.00 39 1009.2
20260508223039 10 0 0.0 9.7 0.00 0.00 0.00 43 1009.0
20260508221545 11 72 0.0 4.8 0.00 0.00 0.00 37 1009.0
20260508220037 11 334 1.6 4.8 0.00 0.00 0.00 38 1008.9
20260508214535 11 0 0.0 3.2 0.00 0.00 0.00 39 1008.8
20260508213034 11 0 0.0 9.7 0.00 0.00 0.00 41 1008.8
20260508211535 11 0 0.0 6.4 0.00 0.00 0.00 37 1008.8
20260508211252 11 299 1.6 4.8 0.00 0.00 0.00 39 1008.7
20260508210745 11 340 1.6 4.8 0.00 0.00 0.00 38 1008.6
20260508210236 11 70 0.0 4.8 0.00 0.00 0.00 35 1008.5
20260508210036 11 329 1.6 9.7 0.00 0.00 0.00 36 1008.6
20260508205722 11 23 0.0 4.8 0.00 0.00 0.00 36 1008.5
20260508204539 11 324 3.2 8.0 0.00 0.00 0.00 40 1008.5
20260508203942 11 340 1.6 4.8 0.00 0.00 0.00 39 1008.3
20260508203450 11 340 1.6 4.8 0.00 0.00 0.00 39 1008.4
20260508203035 11 302 3.2 6.4 0.00 0.00 0.00 39 1008.4
20260508202957 11 357 1.6 4.8 0.00 0.00 0.00 39 1008.3
20260508202453 11 336 1.6 4.8 0.00 0.00 0.00 38 1008.3
20260508201536 11 358 1.6 6.4 0.00 0.00 0.00 38 1008.3
20260508200655 11 321 0.0 0.0 0.00 0.00 0.00 39 1008.2
20260508200201 10 321 0.0 0.0 0.00 0.00 0.00 41 1008.3
20260508200043 10 0 0.0 8.0 0.00 0.00 0.00 39 1008.3
20260508195649 10 3 1.6 4.8 0.00 0.00 0.00 39 1008.4
20260508195149 11 301 0.0 3.2 0.00 0.00 0.00 39 1008.4
20260508194535 10 23 0.0 4.8 0.00 0.00 0.00 41 1008.4
20260508193037 10 0 0.0 6.4 0.00 0.00 0.00 40 1008.5
20260508191534 11 24 3.2 14.5 0.00 0.00 0.00 38 1008.4
20260508190043 10 143 1.6 6.4 0.00 0.00 0.00 42 1008.7
20260508184538 9 0 0.0 6.4 0.00 0.00 0.00 43 1008.8
20260508183037 10 353 3.2 6.4 0.00 0.00 0.00 43 1008.8
20260508181537 10 0 1.6 12.9 0.00 0.00 0.00 40 1008.7
20260508180035 10 246 3.2 14.5 0.00 0.00 0.00 41 1008.8
20260508174539 10 236 1.6 8.0 0.00 0.00 0.00 44 1009.0
20260508173038 10 245 1.6 12.9 0.00 0.00 0.00 42 1009.0
20260508171535 9 327 1.6 9.7 0.00 0.00 0.00 46 1009.1
20260508170036 8 307 0.0 9.7 0.00 0.00 0.00 45 1009.1
20260508164538 8 91 1.6 8.0 0.00 0.00 0.00 44 1009.1
20260508163034 8 330 1.6 9.7 0.00 0.00 0.00 45 1009.3
20260508161534 9 124 1.6 8.0 0.00 0.00 0.00 43 1009.2
20260508160036 10 353 1.6 8.0 0.00 0.00 0.00 42 1009.0
20260508154536 10 315 3.2 12.9 0.00 0.00 0.00 42 1008.9
20260508153036 9 107 3.2 11.3 0.00 0.00 0.00 41 1008.8
20260508151534 9 301 1.6 8.0 0.00 0.00 0.00 43 1008.8
20260508150042 10 353 3.2 9.7 0.00 0.00 0.00 41 1008.9
20260508144538 10 239 3.2 14.5 0.00 0.00 0.00 38 1008.8
20260508143036 10 112 3.2 9.7 0.00 0.00 0.00 40 1008.7
20260508141615 10 249 1.6 9.7 0.00 0.00 0.00 38 1008.9
20260508141537 10 348 1.6 12.9 0.00 0.00 0.00 38 1008.8
20260508141100 10 70 1.6 12.9 0.00 0.00 0.00 38 1008.8
20260508140603 9 196 1.6 12.9 0.00 0.00 0.00 40 1009.0
20260508140109 8 348 3.2 12.9 0.00 0.00 0.00 38 1008.8
20260508140035 8 340 3.2 16.1 0.00 0.00 0.00 38 1008.8
20260508135610 8 353 3.2 12.9 0.00 0.00 0.00 38 1008.9
20260508135102 8 80 3.2 12.9 0.00 0.00 0.00 39 1009.0
20260508134555 8 226 3.2 12.9 0.00 0.00 0.00 40 1009.0
20260508134538 8 303 3.2 12.9 0.00 0.00 0.00 40 1008.9
20260508134046 8 288 1.6 12.9 0.00 0.00 0.00 44 1009.0
20260508133533 8 12 3.2 12.9 0.00 0.00 0.00 44 1009.0
20260508133038 7 93 3.2 14.5 0.00 0.00 0.00 44 1008.8
20260508133026 7 109 1.6 11.3 0.00 0.00 0.00 44 1008.8
20260508132527 7 120 0.0 8.0 0.00 0.00 0.00 45 1008.9
20260508132022 7 149 0.0 4.8 0.00 0.00 0.00 47 1009.0
20260508131535 7 332 0.0 6.4 0.00 0.00 0.00 51 1009.0
20260508131519 7 332 0.0 3.2 0.00 0.00 0.00 51 1009.0
20260508131011 7 353 0.0 8.0 0.00 0.00 0.00 48 1009.0
20260508130502 7 357 0.0 8.0 0.00 0.00 0.00 49 1009.1
20260508130056 6 0 0.0 16.1 0.00 0.00 0.00 51 1009.1
20260508125955 7 38 0.0 1.6 0.00 0.00 0.00 51 1009.1
20260508124535 6 0 0.0 4.8 0.00 0.00 0.00 61 1009.2
20260508123035 5 0 0.0 3.2 0.00 0.00 0.00 63 1009.2
20260508121538 5 0 0.0 6.4 0.00 0.00 0.00 72 1009.2
20260508120035 4 0 1.6 6.4 0.00 0.00 0.00 69 1009.2
20260508114535 3 0 0.0 4.8 0.00 0.00 0.00 76 1009.1
20260508113041 1 0 0.0 3.2 0.00 0.00 0.00 87 1009.0
20260508111534 0 0 0.0 0.0 0.00 0.00 0.00 91 1008.8
20260508110037 0 0 0.0 0.0 0.00 0.00 0.00 92 1008.8
20260508104603 -1 0 0.0 0.0 0.00 0.00 0.00 92 1008.7